Torna al catalogo

STARLINK-37217

AttivoComunicazioniVLEO
NORAD 68335·PAYLOAD·🇺🇸 United States

Lanciato Mar 22, 2026 da Cape Canaveral Space Force Station

Loading…

Prossimi Passaggi (prossime 24 ore)

TLE

AggiornatoSource: CelesTrak SupGP

Epoca: Sep 14, 2026, 23:19 UTC

1 68335C 26059Q   26257.97201389 -.00049945  00000+0 -14754-2 0  2570
2 68335  53.1578 179.9060 0001306  83.3350 304.1052 15.34421576    14

Traccia STARLINK-37217 in tempo reale con AllMySat

Download on the App Store